Stations météo

réclame
Mon MeteoGroup
Quimper, France (7201): Température de l'air & dewpoint: 11.01.2019 01:00:00 - 17.01.2019 01:00:00 (CET)Quimper, France (7201): Température de l'air 5cm: 11.01.2019 01:00:00 - 17.01.2019 01:00:00 (CET)Quimper, France (7201): Température de l'air -20cm: 11.01.2019 01:00:00 - 17.01.2019 01:00:00 (CET)Quimper, France (7201): Vitesse du vent & gusts: 11.01.2019 01:00:00 - 17.01.2019 01:00:00 (CET)Quimper, France (7201): Direction du vent: 11.01.2019 01:00:00 - 17.01.2019 01:00:00 (CET)Quimper, France (7201): reduced air pressure: 11.01.2019 01:00:00 - 17.01.2019 01:00:00 (CET)Quimper, France (7201): visibility: 11.01.2019 01:00:00 - 17.01.2019 01:00:00 (CET)Quimper, France (7201): Ensoleillement: 11.01.2019 01:00:00 - 17.01.2019 01:00:00 (CET)Quimper, France (7201): Quantités de précipitations: 11.01.2019 01:00:00 - 17.01.2019 01:00:00 (CET)
Date & Time tt [°C] td [°C] tt 5cm [°C] tt -20cm [°C] ff [km/h] ff [knt] fx [km/h] fx [knt] dd ppp [hPa] vv [km] sd [min] rr [mm]
17.01.2019 01:00:00 6,0 3,0 5,1 8,6 16 8 31 17 WNW 1011,9 60 0 0,0
17.01.2019 00:00:00 6,8 4,1 5,0 8,6 19 11 37 20 W 1011,8 60 0 0,0
16.01.2019 23:00:00 6,6 3,9 3,6 8,6 20 11 35 19 W 1011,8 59 0 0,0
16.01.2019 22:00:00 5,8 3,5 3,7 8,6 15 8 34 19 W 1011,5 60 0 0,2
16.01.2019 21:00:00 5,3 3,6 4,0 8,6 11 6 19 10 W 1011,3 60 0 0,0
16.01.2019 20:00:00 7,1 5,6 6,0 8,5 15 8 30 16 WNW 1010,8 48 0 0,0
16.01.2019 19:00:00 7,8 7,0 6,9 8,5 14 7 23 12 WNW 1010,4 16 0 0,2
16.01.2019 18:00:00 7,9 7,0 7,3 8,5 13 7 50 27 WNW 1010,0 7 0 0,2
16.01.2019 17:00:00 8,2 7,0 7,5 8,4 22 12 55 30 NW 1009,5 16 0 0,2
16.01.2019 16:00:00 10,3 9,1 9,5 8,4 21 11 33 18 WSW 1008,8 3,1 1 1,0
16.01.2019 15:00:00 10,5 9,1 9,9 8,4 18 10 41 22 WSW 1009,0 58 0 0,0
16.01.2019 14:00:00 10,0 9,1 9,3 8,4 22 12 41 22 WSW 1009,6 47 0 0,4
16.01.2019 13:00:00 9,7 8,9 9,1 8,4 14 7 29 15 SSW 1010,4 8 0 0,0
16.01.2019 12:00:00 9,2 8,7 8,2 8,4 15 8 24 13 SSW 1011,3 12 0 0,2
16.01.2019 11:00:00 8,6 7,7 7,6 8,4 10 6 24 13 SSW 1011,8 12 0 0,2
16.01.2019 10:00:00 8,3 7,1 7,5 8,4 13 7 24 13 SW 1012,2 4,3 0 0,0
16.01.2019 09:00:00 8,7 4,9 8,5 8,4 10 6 21 11 SSW 1012,1 51 0 0,0
16.01.2019 08:00:00 8,7 4,9 8,4 8,5 13 7 29 15 SSW 1012,3 54 0 0,0
16.01.2019 07:00:00 8,7 4,5 8,1 8,5 18 10 27 14 SSW 1013,0 59 0 0,0
16.01.2019 06:00:00 8,2 4,6 7,7 8,5 12 6 24 13 SSW 1013,9 54 0 0,0
16.01.2019 05:00:00 7,9 4,5 7,7 8,5 10 5 24 13 SSW 1014,9 57 0 0,0
16.01.2019 04:00:00 7,9 4,3 7,7 8,5 16 8 25 13 SSW 1015,7 57 0 0,0
16.01.2019 03:00:00 7,9 4,3 7,7 8,5 9 5 23 12 S 1016,3 58 0 0,0
16.01.2019 02:00:00 7,9 4,5 7,6 8,5 10 5 20 11 SSW 1017,4 49 0 0,0
16.01.2019 01:00:00 7,9 4,3 7,7 8,5 10 5 18 10 S 1018,2 47 0 0,0
16.01.2019 00:00:00 8,0 4,8 7,8 8,5 10 6 22 12 S 1018,8 38 0 0,0
15.01.2019 23:00:00 8,1 4,5 7,8 8,5 13 7 25 13 S 1019,3 41 0 0,0
15.01.2019 22:00:00 7,9 4,5 7,6 8,5 9 5 16 9 S 1019,9 44 0 0,0
15.01.2019 21:00:00 7,8 4,4 7,5 8,5 6 3 10 5 S 1020,5 41 0 0,0
15.01.2019 20:00:00 7,7 4,6 7,1 8,5 6 3 11 6 S 1021,0 33 0 0,0
15.01.2019 19:00:00 7,5 4,1 7,1 8,5 0 0 6 4 N 1021,5 37 0 0,0
15.01.2019 18:00:00 7,6 4,4 7,2 8,5 4 2 8 5 ESE 1021,8 49 0 0,0
15.01.2019 17:00:00 8,0 4,0 8,0 8,5 5 3 10 5 SE 1022,3 47 0 0,0
15.01.2019 16:00:00 8,2 3,8 8,5 8,5 5 3 12 6 S 1022,7 54 0 0,0
15.01.2019 15:00:00 8,2 3,6 8,5 8,5 5 3 14 8 S 1023,3 55 0 0,0
15.01.2019 14:00:00 8,2 3,6 8,7 8,5 9 5 18 10 S 1024,0 57 0 0,0
15.01.2019 13:00:00 8,1 3,2 8,6 8,5 10 5 16 9 S 1024,9 60 0 0,0
15.01.2019 12:00:00 8,1 3,9 8,2 8,5 7 4 12 6 SSE 1025,7 51 0 0,0
15.01.2019 11:00:00 7,8 3,5 7,6 8,5 6 4 13 7 SSE 1025,8 56 0 0,0
15.01.2019 10:00:00 7,3 3,3 6,9 8,6 7 4 11 6 S 1025,7 45 0 0,0
15.01.2019 09:00:00 7,2 3,4 6,6 8,6 5 3 12 6 S 1025,6 46 0 0,0
15.01.2019 08:00:00 6,5 3,3 5,9 8,6 5 3 10 5 S 1025,7 43 0 0,0
15.01.2019 07:00:00 6,3 4,0 5,8 8,6 3 1 6 3 S 1026,0 34 0 0,0
15.01.2019 06:00:00 6,4 4,1 5,8 8,6 0 0 6 3 N 1026,2 33 0 0,0
15.01.2019 05:00:00 6,9 3,5 6,3 8,7 4 2 8 5 WSW 1026,4 20 0 0,0
15.01.2019 04:00:00 6,8 3,2 6,0 8,7 0 0 13 7 N 1026,8 46 0 0,0
15.01.2019 03:00:00 6,9 3,1 5,7 8,7 0 0 8 4 N 1027,0 48 0 0,0
15.01.2019 02:00:00 6,4 3,5 5,4 8,7 3 2 7 4 W 1027,3 42 0 0,0
15.01.2019 01:00:00 6,9 4,0 5,9 8,7 0 0 4 2 N 1027,6 34 0 0,0
15.01.2019 00:00:00 6,9 3,7 6,2 8,7 0 0 6 3 N 1027,7 32 0 0,0
14.01.2019 23:00:00 7,4 2,7 6,5 8,7 0 0 5 3 N 1027,5 20 0 0,0
14.01.2019 22:00:00 7,8 2,9 6,9 8,7 0 0 7 4 N 1027,5 38 0 0,0
14.01.2019 21:00:00 7,9 3,2 7,0 8,8 3 1 10 5 NNE 1027,5 19 0 0,0
14.01.2019 20:00:00 8,0 3,3 7,4 8,7 3 2 15 8 N 1027,7 44 0 0,0
14.01.2019 19:00:00 8,1 3,5 7,4 8,7 0 0 11 6 N 1027,2 30 0 0,0
14.01.2019 18:00:00 8,5 3,9 7,9 8,7 4 2 16 9 N 1027,1 20 0 0,0
14.01.2019 17:00:00 9,1 2,6 9,0 8,6 10 5 19 11 NNE 1026,7 51 0 0,0
14.01.2019 16:00:00 9,5 4,1 9,8 8,6 11 6 22 12 N 1026,4 40 0 0,0
14.01.2019 15:00:00 9,8 4,0 10,4 8,5 11 6 24 13 N 1026,2 48 0 0,0
14.01.2019 14:00:00 9,9 3,6 10,8 8,5 8 4 23 13 N 1026,3 47 0 0,0
14.01.2019 13:00:00 9,8 3,3 10,6 8,5 15 8 28 15 NNE 1026,7 20 0 0,0
14.01.2019 12:00:00 9,6 5,0 9,9 8,5 11 6 18 10 N 1026,9 20 0 0,0
14.01.2019 11:00:00 9,4 5,0 8,9 8,5 6 4 15 8 N 1026,5 20 0 0,0
14.01.2019 10:00:00 8,8 5,2 8,2 8,6 5 3 12 7 N 1026,0 20 0 0,0
14.01.2019 09:00:00 8,8 5,4 8,3 8,6 7 4 25 14 N 1025,5 18 0 0,0
14.01.2019 08:00:00 8,9 4,9 8,2 8,6 17 9 31 17 NNW 1024,5 20 0 0,0
14.01.2019 07:00:00 9,1 5,8 8,2 8,6 19 11 36 19 N 1024,2 19 0 0,0
14.01.2019 06:00:00 9,2 7,5 8,1 8,6 18 10 34 18 NNW 1023,8 19 0 0,0
14.01.2019 05:00:00 9,0 7,9 8,2 8,6 20 11 32 17 NW 1023,7 37 0 0,0
14.01.2019 04:00:00 9,0 8,2 8,1 8,5 20 11 29 16 WNW 1023,8 58 0 0,0
14.01.2019 03:00:00 9,2 8,4 8,6 8,5 17 9 31 17 NW 1024,0 60 0 0,0
14.01.2019 02:00:00 9,9 9,1 9,4 8,5 21 11 37 20 NW 1024,1 16 0 0,0
14.01.2019 01:00:00 9,9 9,3 9,4 8,5 24 13 37 20 NW 1024,2 12 0 0,0
14.01.2019 00:00:00 9,8 9,2 9,3 8,5 21 11 39 21 NW 1024,2 12 0 0,0
13.01.2019 23:00:00 9,7 9,1 9,3 8,5 29 16 45 25 NW 1024,0 2,6 0 0,0
13.01.2019 22:00:00 10,1 8,2 9,6 8,5 28 15 44 24 NW 1023,6 16 0 0,0
13.01.2019 21:00:00 10,0 7,6 9,1 8,4 24 13 39 21 NW 1023,9 45 0 0,0
13.01.2019 20:00:00 9,9 6,8 9,5 8,4 29 16 51 28 NW 1024,0 59 0 0,0
13.01.2019 19:00:00 10,0 6,9 9,7 8,4 31 17 54 29 NW 1024,0 44 0 0,0
13.01.2019 18:00:00 10,1 6,8 9,7 8,3 35 19 54 29 NW 1023,7 43 0 0,0
13.01.2019 17:00:00 10,3 7,9 9,6 8,3 34 18 51 28 WNW 1023,8 20 0 0,0
13.01.2019 16:00:00 10,1 8,7 9,5 8,2 30 16 50 27 NW 1024,3 10 0 0,0
13.01.2019 15:00:00 10,5 8,9 9,8 8,2 27 15 50 27 WNW 1024,7 16 0 0,0
13.01.2019 14:00:00 10,6 8,9 9,9 8,2 24 13 47 25 WNW 1025,6 10 0 0,0
13.01.2019 13:00:00 10,5 8,3 10,3 8,1 23 12 39 21 WNW 1026,4 55 0 0,0
13.01.2019 12:00:00 10,3 9,1 9,7 8,1 18 10 37 20 NW 1027,4 55 0 0,0
13.01.2019 11:00:00 10,0 8,9 9,5 8,1 22 12 39 21 WNW 1027,5 11 0 0,0
13.01.2019 10:00:00 9,8 8,6 8,8 8,1 18 10 36 20 WNW 1027,3 46 15 0,0
13.01.2019 09:00:00 9,1 8,2 8,8 8,0 27 15 40 22 WNW 1027,5 20 0 0,0
13.01.2019 08:00:00 9,2 8,9 8,9 8,0 13 7 35 19 WNW 1027,4 12 0 0,0
13.01.2019 07:00:00 9,2 9,1 8,7 8,0 15 8 28 15 WNW 1027,9 2,5 0 0,0
13.01.2019 06:00:00 9,3 8,8 8,9 8,0 21 11 35 19 NW 1028,2 18 0 0,0
13.01.2019 05:00:00 9,5 9,0 9,1 8,0 18 10 33 18 WNW 1028,3 5 0 0,0
13.01.2019 04:00:00 9,6 9,1 9,2 8,0 21 12 31 17 WNW 1029,0 4,9 0 0,0
13.01.2019 03:00:00 9,7 8,9 9,2 7,9 17 9 36 20 NW 1028,9 9 0 0,0
13.01.2019 02:00:00 9,9 8,5 9,4 7,9 17 9 32 17 NW 1029,2 19 0 0,0
13.01.2019 01:00:00 9,6 8,0 8,9 7,9 24 13 36 19 NW 1029,4 19 0 0,0
13.01.2019 00:00:00 9,4 7,8 8,1 7,9 16 9 26 14 NW 1029,8 18 0 0,0
12.01.2019 23:00:00 9,0 7,6 8,2 7,8 11 6 29 16 NW 1029,9 19 0 0,0
12.01.2019 22:00:00 9,3 7,9 8,6 7,8 15 8 40 22 NW 1029,6 54 0 0,0
12.01.2019 21:00:00 9,8 9,0 8,9 7,8 24 13 41 22 NW 1030,1 4,3 0 0,2
12.01.2019 20:00:00 9,7 8,8 9,1 7,7 22 12 39 21 NW 1030,2 56 0 0,0
12.01.2019 19:00:00 9,8 8,9 9,1 7,6 25 13 38 20 NW 1030,5 13 0 0,0
12.01.2019 18:00:00 9,9 8,7 9,1 7,6 20 11 41 22 NW 1030,5 17 0 0,0
12.01.2019 17:00:00 9,9 9,0 9,4 7,5 26 14 40 21 NW 1030,5 60 0 0,4
12.01.2019 16:00:00 9,9 9,3 9,6 7,5 18 10 41 22 WNW 1030,5 3,9 0 0,0
12.01.2019 15:00:00 10,1 9,0 9,5 7,4 21 11 34 18 WNW 1031,1 6 2 0,2
12.01.2019 14:00:00 10,0 9,4 9,5 7,3 19 10 33 18 WNW 1031,7 2,6 10 0,0
12.01.2019 13:00:00 9,9 8,7 9,3 7,3 16 9 29 16 WNW 1032,5 8 0 0,2
12.01.2019 12:00:00 9,7 8,9 9,3 7,3 16 9 28 15 WNW 1033,1 7 21 0,0
12.01.2019 11:00:00 9,2 8,4 8,4 7,3 13 7 21 12 NW 1033,7 19 6 0,2
12.01.2019 10:00:00 8,5 7,9 6,9 7,3 10 5 16 8 WNW 1033,4 6 8 0,0
12.01.2019 09:00:00 7,3 6,2 6,4 7,3 11 6 16 8 W 1033,3 18 0 0,0
12.01.2019 08:00:00 7,1 5,4 6,7 7,3 8 4 10 5 W 1033,2 46 0 0,0
12.01.2019 07:00:00 7,2 5,7 6,7 7,3 8 4 12 6 W 1033,4 20 0 0,0
12.01.2019 06:00:00 7,1 5,7 6,5 7,3 10 5 18 10 WNW 1033,9 34 0 0,0
12.01.2019 05:00:00 6,8 5,4 6,3 7,2 4 2 9 5 W 1034,0 30 0 0,0
12.01.2019 04:00:00 7,1 5,4 6,6 7,2 3 2 7 4 WSW 1034,1 34 0 0,0
12.01.2019 03:00:00 7,5 5,3 6,9 7,2 6 4 14 7 NW 1034,4 33 0 0,0
12.01.2019 02:00:00 7,6 5,6 7,1 7,2 9 5 11 6 NW 1034,8 35 0 0,0
12.01.2019 01:00:00 7,6 5,4 7,0 7,2 9 5 14 8 NNW 1034,9 48 0 0,0
12.01.2019 00:00:00 7,6 4,7 6,9 7,2 8 5 13 7 NNW 1034,8 57 0 0,0
11.01.2019 23:00:00 7,4 4,0 6,9 7,2 6 3 10 6 N 1034,6 60 0 0,0
11.01.2019 22:00:00 7,5 3,9 7,2 7,1 10 5 19 10 NNW 1034,3 60 0 0,0
11.01.2019 21:00:00 7,6 4,2 7,1 7,0 10 5 14 8 NNW 1034,1 60 0 0,0
11.01.2019 20:00:00 7,9 4,7 7,5 7,0 7 4 18 10 NNE 1034,0 53 0 0,0
11.01.2019 19:00:00 8,0 5,1 7,5 6,9 8 5 16 9 N 1033,6 60 0 0,0
11.01.2019 18:00:00 8,1 5,2 7,4 6,9 7 4 18 10 N 1033,3 60 9 0,0
11.01.2019 17:00:00 8,8 4,8 8,8 6,8 11 6 28 15 NNE 1033,0 60 10 0,0
11.01.2019 16:00:00 9,5 5,1 9,6 6,7 17 9 31 17 N 1032,5 60 8 0,0
11.01.2019 15:00:00 10,1 6,4 9,6 6,7 13 7 25 14 NW 1032,4 54 32 0,0
11.01.2019 14:00:00 9,1 6,2 7,9 6,6 13 7 34 19 NNW 1032,9 54 1 0,0
11.01.2019 13:00:00 10,1 5,7 10,4 6,6 14 8 24 13 NNW 1033,4 58 27 0,0
11.01.2019 12:00:00 9,6 6,7 8,7 6,6 13 7 20 11 NNW 1033,7 57 38 0,0
11.01.2019 11:00:00 8,2 6,7 7,1 6,6 10 5 14 7 NNW 1033,7 44 13 0,0
11.01.2019 10:00:00 7,0 5,9 6,4 6,6 6 3 16 9 N 1033,5 48 0 0,0
11.01.2019 09:00:00 6,9 6,3 5,7 6,6 11 6 24 13 N 1033,0 20 0 0,0
11.01.2019 08:00:00 5,6 4,7 4,9 6,7 3 2 13 7 NW 1032,7 18 0 0,0
11.01.2019 07:00:00 5,2 4,0 4,8 6,7 9 5 14 8 WNW 1032,3 20 0 0,0
11.01.2019 06:00:00 4,8 3,8 4,1 6,8 10 6 14 8 WNW 1032,5 20 0 0,0
11.01.2019 05:00:00 4,0 3,1 2,8 6,9 11 6 13 7 WNW 1032,9 18 0 0,0
11.01.2019 04:00:00 2,7 2,1 1,6 6,9 6 4 8 4 WNW 1033,0 16 0 0,0
11.01.2019 03:00:00 2,0 1,0 0,9 6,9 4 2 10 5 W 1032,9 10 0 0,0
11.01.2019 02:00:00 1,1 0,5 -1,0 7,0 8 4 10 5 WNW 1032,8 17 0 0,0
11.01.2019 01:00:00 1,0 0,3 -1,4 7,0 4 2 8 4 NW 1032,9 19 0 0,0

tt = Température de l'air
td = dewpoint
tt 5cm = Température de l'air 5cm
tt -20cm = Température de l'air -20cm
ff = Vitesse du vent
fx = gusts
dd = Direction du vent
ppp = reduced air pressure
vv = visibility
sd = Ensoleillement
rr = Quantités de précipitations

stations d'obs. à proximité